User: anonymous   Login
Location: Unspecified
(0.0000°N, 0.0000°E)
Time: 06:12:00
(UTC+00:00)
Language:

HO-68 - Orbit

View from above orbital plane
View from above orbital plane
View from above satellite
View from above satellite

Ground track
Ground track

The orbit data is extracted from the following two-line orbital elements,

1 36122U 09072B   16243.54373119 -.00000047  00000-0 -11674-4 0  9997
2 36122 100.1372 276.3725 0007522 180.1569 179.9544 13.16335568322397
Epoch (UTC): 30 August 2016 13:02:58
Eccentricity: 0.0007522
inclination: 100.1372°
perigee height: 1193 km
apogee height: 1204 km
right ascension of ascending node: 276.3725°
argument of perigee: 180.1569°
revolutions per day: 13.16335568
mean anomaly at epoch: 179.9544°
orbit number at epoch: 32239

The dashed part of the orbit path shows where the satellite is in the earth's shadow,  

DLR